User: anonymous   Login
Location: UBC Liquid-Mirror Observatory
(49.2876°N, 122.5728°W)
Time: 18:36:20
(UTC-08:00)
Language:

KITSAT 1 - Orbit

View from above orbital plane
View from above orbital plane
View from above satellite
View from above satellite

Ground track
Ground track

The orbit data is extracted from the following two-line orbital elements,

1 22077U 92052B   17052.87429392 -.00000048 +00000-0 +54340-4 0  9998
2 22077 066.0832 208.0945 0002614 356.3566 169.2631 12.86517339152180
Epoch (UTC): 21 February 2017 20:58:58
Eccentricity: 0.0002614
inclination: 66.0832°
perigee height: 1313 km
apogee height: 1317 km
right ascension of ascending node: 208.0945°
argument of perigee: 356.3566°
revolutions per day: 12.86517339
mean anomaly at epoch: 169.2631°
orbit number at epoch: 15218

The dashed part of the orbit path shows where the satellite is in the earth's shadow,  

DLR